Wind_Gust
20 19 21 21 19 18 18 16 15 17 18 17 18 17 18 18 16 15 15 13 12 12 11 11 10 10 10 10 10 11 12 12 11 9 9 10 9 10 11 10 9 10
18 18 18 18 16 16 16 17 18 19 19 18 18 17 16 15 14 16 15 13 12 13 11 11 11 11 10 10 10 12 12 11 9 6 9 9 9 9 10 10 10 8
17 17 20 19 19 17 16 14 15 15 18 18 17 17 18 16 16 14 14 14 13 13 12 12 11 11 11 11 11 11 12 8 9 8 9 10 9 10 9 8 8 9
19 21 22 19 17 17 15 16 13 14 13 15 16 17 18 16 15 16 14 14 13 12 12 11 12 12 11 12 10 11 11 9 9 8 8 6 7 8 7 8 7 7
23 20 18 18 16 16 16 16 16 15 15 16 15 16 16 14 14 14 14 13 13 13 12 13 12 12 12 12 11 12 12 10 8 8 8 8 7 7 6 8 8 8
17 16 15 16 16 17 16 16 15 16 15 14 18 16 16 16 16 16 15 15 14 14 13 13 13 12 12 11 11 12 13 11 10 9 8 9 8 7 8 7 7 7
21 19 16 14 14 15 16 16 15 15 17 17 15 16 16 15 15 15 15 15 14 14 14 14 13 12 11 11 12 12 11 10 11 10 9 8 8 7 7 8 6 7
21 19 21 18 16 16 15 16 15 16 16 14 17 16 16 17 16 15 14 15 14 15 14 14 13 13 12 11 12 11 9 9 11 11 9 8 8 8 8 7 8 8
26 27 24 22 19 18 15 15 15 14 16 18 18 16 14 16 16 15 15 15 15 15 15 14 13 13 13 13 12 11 11 10 10 10 10 9 9 10 8 8 9 11
20 22 21 24 24 23 21 19 16 15 15 16 16 16 17 14 14 15 14 15 15 15 15 14 14 14 13 13 13 12 11 11 10 10 10 10 9 8 9 9 9 8
20 22 23 23 23 21 20 18 17 16 14 15 14 15 14 14 13 14 16 16 19 17 17 16 16 15 14 13 11 11 11 11 11 11 10 9 10 10 9 10 9 8
23 22 25 25 23 20 20 19 20 18 18 16 15 16 14 15 17 16 18 18 19 18 18 17 15 14 14 14 13 12 11 10 10 9 9 9 10 8 8 9 9 8
24 26 27 26 24 21 19 16 17 19 19 18 15 16 16 17 18 19 19 20 20 18 18 17 15 15 14 12 11 11 11 10 9 9 9 10 11 8 8 7 7 8
29 27 25 25 24 22 20 20 19 18 18 15 15 18 19 20 21 21 21 20 19 17 17 16 16 14 13 12 12 12 13 14 14 13 9 10 8 6 6 7 8 8
27 24 21 20 19 17 17 18 19 18 15 15 16 19 20 20 21 21 20 21 21 19 17 19 18 19 20 21 17 17 17 16 15 13 14 11 8 7 7 7 8 8
20 18 19 18 18 19 18 17 17 16 16 16 18 20 20 21 25 22 18 18 18 17 15 16 16 16 15 20 17 16 14 15 14 14 14 13 12 10 7 7 8 8
20 20 19 20 19 18 17 18 18 17 17 18 18 18 20 21 17 16 16 17 20 21 16 14 12 16 20 17 17 16 15 15 14 13 12 13 13 12 10 8 9 8
19 20 21 20 19 20 20 20 19 19 19 18 17 16 17 15 14 14 15 18 17 16 16 18 17 14 18 17 19 19 15 15 13 13 13 13 12 13 13 11 11 11
18 20 20 21 21 21 20 20 20 19 20 18 17 16 17 17 16 17 17 16 20 17 16 12 11 12 18 19 17 19 20 16 13 13 13 13 13 13 13 12 12 11
18 19 19 19 19 19 19 19 20 22 20 17 16 16 17 19 18 16 14 15 17 16 14 13 15 14 17 18 17 16 17 14 12 14 13 13 15 15 15 14 13 13
23 21 20 20 20 20 19 19 21 19 18 17 18 19 18 20 21 21 19 17 15 15 16 15 19 15 18 19 19 18 17 13 10 10 11 10 10 11 12 12 12 12
25 24 22 21 21 21 21 20 19 19 19 17 16 14 16 21 18 19 17 16 16 16 17 20 16 15 17 19 19 18 18 13 12 11 11 11 11 10 10 11 12 12
24 25 24 23 22 22 22 21 19 18 16 15 16 16 18 18 17 16 15 15 15 18 18 15 15 15 15 17 17 18 14 12 11 11 12 12 12 10 10 10 11 11
21 23 23 22 22 23 22 19 17 16 17 17 19 19 19 20 19 16 15 17 19 19 19 18 16 14 16 15 17 18 13 14 12 13 12 12 11 9 9 10 11 15
18 19 21 22 22 21 19 18 18 18 16 14 15 17 21 17 14 17 16 18 14 16 15 20 18 14 13 13 15 16 13 13 13 13 13 11 12 10 7 9 10 12
17 16 16 18 20 17 16 15 14 15 15 15 15 21 20 14 15 16 19 17 13 14 16 17 19 14 13 15 14 13 12 14 12 15 15 12 11 12 11 7 8 9
Wind_Speed
10 10 11 11 10 9 9 9 8 8 8 8 9 9 9 9 10 9 9 8 8 7 7 7 6 6 6 6 6 5 5 6 5 4 5 5 5 6 6 6 6 6
9 8 8 8 8 8 8 8 8 8 9 8 8 9 9 8 8 9 9 8 8 8 7 6 6 7 7 6 6 6 5 5 5 4 5 6 5 6 6 7 6 5
9 8 8 9 9 8 8 7 7 7 7 8 7 7 8 8 8 7 8 8 8 7 7 6 6 6 6 6 6 6 6 5 6 5 6 7 5 6 6 5 5 6
11 11 10 8 7 8 8 7 6 5 4 5 7 7 6 7 7 8 7 8 7 7 6 6 6 6 6 6 6 5 5 5 5 5 5 2 4 5 4 4 4 4
10 9 8 8 7 8 8 8 8 7 7 7 6 6 6 5 6 7 7 7 7 6 6 6 5 5 5 5 6 5 5 5 5 5 5 5 3 3 3 4 5 5
6 4 4 7 8 9 9 9 9 8 7 7 8 7 7 7 7 8 8 8 7 7 7 6 6 5 6 6 5 5 5 5 5 5 5 6 4 2 3 3 3 2
8 7 6 5 6 7 8 7 7 7 8 7 7 8 7 8 8 8 8 8 8 7 7 7 7 6 6 6 6 6 5 6 5 5 6 5 5 3 2 2 2 2
9 8 7 6 5 7 8 7 7 7 7 6 8 9 8 9 9 8 7 8 8 8 7 7 7 7 7 6 6 6 6 5 5 5 5 5 5 5 3 3 5 5
13 13 12 13 12 9 9 9 8 7 7 8 9 8 8 8 9 8 8 8 8 8 8 7 8 8 7 7 7 7 7 6 5 6 6 6 6 5 4 5 4 4
10 10 11 10 11 10 12 12 10 8 7 9 9 8 9 8 7 8 8 9 9 8 8 8 7 7 7 7 7 7 7 7 6 6 6 6 6 4 5 5 5 4
10 9 11 12 12 10 12 11 10 9 8 9 8 8 8 7 6 7 8 8 9 9 8 8 8 8 7 7 6 7 7 7 7 6 6 4 3 4 4 6 5 4
11 10 11 13 13 10 10 11 12 11 11 10 9 9 8 7 8 8 9 10 9 8 7 7 6 6 7 7 7 7 7 7 6 5 5 4 4 3 4 5 5 4
12 13 13 11 11 11 10 9 10 11 12 11 9 8 9 8 9 10 9 8 7 6 5 4 3 4 4 4 5 5 6 6 5 4 3 3 3 4 5 4 4 5
13 13 12 10 9 9 11 11 11 11 11 9 8 9 9 10 11 10 7 5 6 6 7 8 9 8 7 7 6 6 7 7 8 8 6 4 4 3 3 4 4 5
11 8 5 6 7 8 10 11 11 10 9 8 9 9 9 11 10 8 8 8 8 9 9 9 10 10 10 10 10 8 7 6 5 7 9 8 4 3 3 4 4 4
9 7 8 8 9 10 10 10 9 9 9 10 10 11 11 10 8 9 10 10 9 7 6 7 6 6 8 12 9 8 7 7 4 3 5 8 7 5 4 4 4 3
8 9 9 10 11 10 10 10 10 9 9 10 11 11 10 8 8 9 8 8 8 8 7 6 6 6 12 14 14 14 10 9 8 6 6 7 7 7 6 5 4 3
9 9 9 10 10 11 11 10 10 10 10 10 10 9 7 7 8 8 8 7 6 5 5 5 4 6 13 13 13 13 9 7 7 7 7 7 7 7 7 6 6 5
10 10 10 10 10 10 10 10 10 10 9 9 11 9 8 9 8 8 8 8 7 7 6 5 4 8 12 13 14 14 12 7 5 6 7 7 8 8 8 7 5 5
10 10 11 10 10 10 10 10 10 11 10 10 9 8 9 8 8 9 8 8 7 7 7 6 6 10 14 14 13 13 13 10 6 7 6 7 8 9 8 7 8 6
10 10 10 11 11 11 10 10 10 10 10 9 9 11 10 10 10 9 9 8 8 7 7 7 6 11 11 11 11 12 14 10 6 6 6 5 5 7 7 7 6 5
11 11 11 11 11 11 11 11 11 12 11 10 9 8 8 7 6 7 8 8 7 6 6 6 4 10 12 12 12 11 11 7 6 7 6 6 6 6 6 6 7 7
11 12 12 12 12 12 11 11 11 11 10 8 9 9 9 9 8 7 7 7 7 7 7 6 5 8 11 11 11 11 9 6 6 6 5 7 6 6 6 6 6 6
11 12 12 12 11 12 11 10 10 9 10 9 11 11 10 9 8 7 6 7 8 8 9 8 6 7 10 10 12 14 10 8 7 7 6 6 6 5 4 5 6 8
10 11 11 11 10 9 10 10 10 10 9 8 8 8 7 7 7 7 7 6 7 7 8 7 5 5 10 11 13 14 10 7 7 6 7 6 6 5 3 4 5 6
9 10 9 9 9 8 8 9 8 8 8 8 8 6 6 6 6 7 8 8 7 7 7 6 6 6 9 13 12 11 11 8 7 7 7 7 6 7 6 3 4 5
Wind_Direction
187 185 178 176 178 176 179 184 188 190 195 189 189 190 188 197 194 188 191 192 194 191 188 182 173 170 173 168 164 161 171 189 200 177 172 168 187 185 201 205 205 208
187 189 182 171 166 168 177 180 182 187 193 194 196 189 194 196 194 186 190 192 192 194 186 179 174 173 170 168 163 164 179 180 198 172 171 184 197 189 209 205 208 203
171 172 177 181 178 166 165 171 181 191 190 196 197 198 196 191 189 195 193 190 190 189 182 180 173 174 172 173 165 170 178 182 198 187 178 194 188 197 204 187 188 190
178 178 180 180 166 161 158 162 175 180 182 189 199 200 197 195 189 193 195 192 189 185 181 172 179 172 175 176 164 174 178 184 198 174 171 152 199 193 188 173 183 202
176 179 177 166 156 150 154 169 177 176 182 192 190 192 197 198 194 194 193 193 188 186 174 177 170 173 175 174 169 172 163 179 180 168 164 191 205 181 165 162 177 201
114 114 141 156 157 156 166 177 175 174 180 180 188 185 197 197 198 197 190 187 190 187 179 169 168 176 175 179 169 173 166 170 181 165 173 196 182 196 172 171 129 111
134 124 110 116 138 156 164 172 168 173 182 183 172 191 190 196 199 202 196 188 184 187 180 175 174 177 181 178 171 168 168 175 162 170 190 191 160 183 193 137 120 134
146 138 134 127 139 153 159 162 168 175 174 170 185 193 192 196 197 199 197 185 182 187 183 177 177 179 180 177 173 162 165 163 165 179 194 192 193 201 162 143 172 192
172 174 172 167 165 167 171 165 167 174 172 180 188 193 196 196 194 191 192 184 183 188 184 182 179 181 180 176 174 164 164 169 174 182 195 199 205 211 139 162 187 209
178 179 183 177 173 173 178 169 158 159 175 188 193 192 191 196 191 190 188 187 184 187 187 186 180 179 177 180 172 163 159 170 174 189 204 207 201 161 164 179 187 191
186 187 187 185 186 178 171 159 154 157 173 194 194 191 189 178 183 191 192 190 188 188 190 188 187 181 176 176 166 158 163 165 173 188 203 197 174 168 169 184 182 186
188 189 197 194 182 169 163 160 161 167 178 192 193 186 173 179 178 192 199 197 191 187 186 192 184 177 182 183 172 160 155 156 155 161 158 158 182 199 205 179 173 166
192 194 194 198 186 166 155 158 165 171 178 186 182 176 162 182 188 202 211 194 179 164 170 160 142 149 173 177 164 151 136 115 103 96 107 107 273 237 192 169 144 147
199 199 193 191 183 164 163 168 168 171 180 172 159 161 166 194 193 202 201 164 135 136 142 147 151 148 145 139 130 130 127 142 152 150 146 153 213 188 155 143 148 143
199 193 178 173 173 172 172 171 170 171 165 151 151 169 183 198 193 182 174 162 158 166 174 173 168 169 163 158 158 159 163 155 150 157 157 143 172 153 138 143 136 131
184 171 170 169 171 178 173 165 162 156 152 155 169 181 187 189 178 187 187 169 165 174 180 178 183 181 178 160 135 151 145 132 159 194 146 138 141 136 137 139 130 130
169 177 172 176 176 173 165 157 153 148 153 161 171 180 183 174 177 189 192 168 171 180 186 193 190 181 162 153 147 152 155 156 162 168 154 140 150 151 149 138 114 114
169 175 182 182 173 169 161 153 144 149 158 164 167 178 175 171 184 195 181 153 155 172 187 201 205 171 159 158 156 159 164 158 152 153 153 155 150 148 150 149 146 134
168 177 182 178 176 162 150 141 143 149 159 162 173 176 167 182 186 187 169 156 159 168 187 189 182 162 166 165 164 168 168 154 146 144 150 158 149 138 143 144 143 130
171 177 173 170 165 154 143 140 146 159 166 169 166 166 180 181 187 186 152 152 163 171 181 185 180 175 170 167 159 157 161 167 153 153 151 159 158 149 150 154 153 146
172 169 163 162 160 150 146 147 153 157 165 169 171 178 181 183 186 171 157 160 168 172 179 190 197 167 161 162 163 164 170 169 135 127 127 139 140 140 144 143 142 141
169 167 163 160 158 155 154 156 160 165 172 173 175 181 185 187 195 151 147 158 164 169 176 193 175 163 162 170 174 176 158 150 137 134 133 132 125 127 134 142 150 149
169 167 164 162 162 159 158 159 162 168 172 168 173 179 178 184 176 161 152 147 157 175 182 185 183 179 173 176 167 150 148 138 126 121 123 121 117 129 136 141 141 142
168 163 162 164 161 162 160 160 162 164 174 175 177 180 184 175 153 138 133 148 170 193 189 182 191 162 168 159 150 159 157 141 140 136 125 124 118 106 114 134 144 141
161 155 157 159 159 152 150 154 165 172 176 176 186 189 168 141 132 128 136 164 190 196 190 178 151 126 144 147 154 163 147 136 140 136 130 130 132 125 106 126 133 135
151 144 146 144 135 131 142 154 155 157 169 172 182 167 131 124 122 135 156 178 180 184 183 158 139 126 151 146 156 164 146 139 143 138 144 143 146 147 139 132 122 119